Location: Ch�tillon
(48.8024°N, 2.2935°E)
Time: 04:52:16
(UTC+00:00)

BEESAT 2 - Visible Passes

Search period start: 26 June 2022 00:00
Search period end: 06 July 2022 00:00
Orbit: 485 x 508 km, 64.9° (Epoch: 25 June)

Date Brightness Start Highest point End Pass type
(mag) Time Alt. Az. Time Alt. Az. Time Alt. Az.
26 Jun ? 22:03:57 10° WSW 22:04:13 10° WSW 22:04:27 10° WSW visible
27 Jun ? 21:41:09 10° W 21:42:26 11° WSW 21:43:42 10° SW visible
28 Jun ? 21:18:52 10° W 21:20:37 13° WSW 21:22:24 10° SW visible
29 Jun ? 20:56:41 10° WNW 20:58:48 14° WSW 21:00:55 10° SW visible
30 Jun ? 20:34:34 10° WNW 20:36:59 16° WSW 20:39:22 10° SSW visible
